Location: Newark
(34.6283°N, 36.0776°E)
Time: 11:37:01
(UTC+00:00)

Transit 4A - All Passes

Search period start: 20 September 2019 00:00
Search period end: 30 September 2019 00:00
Orbit: 865 x 980 km, 66.8° (Epoch: 19 September)

Date Brightness Start Highest point End Pass type
(mag) Time Alt. Az. Time Alt. Az. Time Alt. Az.
20 Sep - 08:14:19 10° S 08:20:28 51° ESE 08:26:37 10° NE daylight
20 Sep - 10:01:53 10° WSW 10:07:06 26° NW 10:12:18 10° N daylight
20 Sep - 17:21:28 10° N 17:26:42 29° NE 17:31:46 10° ESE visible
20 Sep - 19:07:35 10° NW 19:13:05 38° WSW 19:18:25 10° S visible
21 Sep - 08:23:21 10° SSW 08:29:44 78° ESE 08:36:07 10° NNE daylight
21 Sep - 10:12:34 10° W 10:16:46 18° NW 10:20:57 10° N daylight
21 Sep - 17:30:28 10° NNW 17:36:13 44° ENE 17:41:47 10° SE visible
21 Sep - 19:17:31 10° NW 19:22:12 24° WSW 19:26:48 10° SSW visible
22 Sep - 06:49:42 10° SE 06:53:23 16° ESE 06:57:04 10° ENE daylight
22 Sep - 08:32:41 10° SSW 08:39:04 71° WNW 08:45:26 10° NNE daylight
22 Sep - 10:24:03 10° WNW 10:26:32 12° NW 10:29:02 10° NNW daylight
22 Sep - 15:56:48 10° NNE 15:58:05 11° NE 15:59:21 10° NE visible
22 Sep - 17:39:37 10° NNW 17:45:38 67° ENE 17:51:27 10° SE visible
22 Sep - 19:28:04 10° WNW 19:31:16 15° WSW 19:34:25 10° SW visible
23 Sep - 06:57:23 10° SSE 07:02:29 25° ESE 07:07:32 10° NE daylight
23 Sep - 08:42:21 10° SW 08:48:30 48° WNW 08:54:37 10° NNE daylight
23 Sep - 16:04:18 10° N 16:07:53 16° NE 16:11:24 10° E visible
23 Sep - 17:48:56 10° NNW 17:54:58 81° WSW 18:00:49 10° SSE visible
24 Sep - 07:05:46 10° S 07:11:38 39° ESE 07:17:28 10° NE daylight
24 Sep - 08:52:21 10° WSW 08:58:00 32° NW 09:03:38 10° N daylight
24 Sep - 16:12:51 10° N 16:17:34 23° NE 16:22:10 10° ESE visible
24 Sep - 17:58:25 10° NW 18:04:13 51° WSW 18:09:51 10° S visible
25 Sep - 07:14:34 10° S 07:20:50 60° ESE 07:27:05 10° NE daylight
25 Sep - 09:02:43 10° WSW 09:07:36 23° NW 09:12:29 10° N daylight
25 Sep - 16:21:44 10° N 16:27:09 34° NE 16:32:26 10° ESE visible
25 Sep - 18:08:09 10° NW 18:13:23 32° WSW 18:18:30 10° S visible
26 Sep - 05:42:43 10° ESE 05:44:39 11° E 05:46:34 10° E daylight
26 Sep - 07:23:43 10° SSW 07:30:08 90° E 07:36:31 10° NNE daylight
26 Sep - 09:13:37 10° W 09:17:19 16° NW 09:20:59 10° N daylight
26 Sep - 16:30:47 10° NNW 16:36:38 51° ENE 16:42:18 10° SE visible
26 Sep - 18:18:15 10° WNW 18:22:29 20° WSW 18:26:39 10° SSW visible
27 Sep - 05:49:23 10° SSE 05:53:41 19° ESE 05:57:59 10° ENE daylight
27 Sep - 07:33:11 10° SW 07:39:29 61° WNW 07:45:47 10° NNE daylight
27 Sep - 09:25:52 10° NW 09:27:08 11° NW 09:28:22 10° NNW daylight
27 Sep - 14:56:16 10° NNE 14:58:38 12° NE 15:01:00 10° ENE daylight
27 Sep - 16:40:00 10° NNW 16:46:01 78° ENE 16:51:52 10° SSE visible
27 Sep - 18:29:18 10° W 18:31:31 12° WSW 18:33:43 10° SW visible
28 Sep - 05:57:23 10° SSE 06:02:48 30° ESE 06:08:11 10° NE daylight
28 Sep - 07:42:57 10° SW 07:48:57 41° WNW 07:54:55 10° NNE daylight
28 Sep - 15:04:22 10° N 15:08:24 18° NE 15:12:21 10° E daylight
28 Sep - 16:49:21 10° NNW 16:55:20 69° WSW 17:01:06 10° SSE visible
29 Sep - 06:05:56 10° S 06:11:58 46° ESE 06:17:59 10° NE daylight
29 Sep - 07:53:05 10° WSW 07:58:29 28° NW 08:03:52 10° N daylight
29 Sep - 15:13:04 10° N 15:18:03 26° NE 15:22:55 10° ESE daylight
29 Sep - 16:58:56 10° NW 17:04:33 43° WSW 17:10:01 10° S visible
